Regional Weather Roundup
Issued by NWS Bismarck, ND

Home | Current Version | Previous Version | Text Only | Print | Product List | Glossary On
Versions: 1 2 3 4 5 6 7 8 9 10 11 12 13 14 15 16 17 18 19 20 21 22 23 24 25 26 27 28 29 30 31 32 33 34 35 36 37 38 39 40 41 42 43 44 45 46 47 48 49 50
247
ASUS43 KBIS 190810
RWRBIS

NWR BROADCAST TEXT
NATIONAL WEATHER SERVICE BISMARCK ND
200 AM CST THU JAN 19 2017

NOTE: "FAIR" INDICATES FEW OR NO CLOUDS BELOW 12,000 FEET WITH NO
SIGNIFICANT WEATHER AND/OR OBSTRUCTIONS TO VISIBILITY.


CITY           SKY/WX    TMP DP  RH WIND       PRES   REMARKS
WILLISTON      FAIR      23  20  88 SW6       29.52F WCI  16
MINOT          FAIR      31  24  75 S8        29.51R
MINOT AFB      FAIR      32  25  74 NW6       29.50R
BISMARCK       FAIR      14   8  77 E6        29.59R WCI   5
DICKINSON      FAIR      26  18  71 W12       29.51S WCI  16
GARRISON         N/A     23  18  81 W5        29.53S WCI  17
HETTINGER ARPT FAIR      14  11  87 CALM      29.56F
JAMESTOWN      FAIR      20  17  88 S7        29.57F WCI  11
CARRINGTON     FAIR      25  19  80 S12       29.57S WCI  14
HAZEN            N/A    N/A N/A N/A S5        29.57R
MANDAN         FAIR      23  18  80 SW5       29.57F WCI  17
RUGBY            N/A     23  19  86 S3        29.53S
STANLEY        FAIR      30  27  86 W9        29.53F
TIOGA          FAIR      28  27  93 W6        29.52F
WATFORD CITY   FAIR      23  19  86 CALM      29.52F
$$

CITY           SKY/WX    TMP DP  RH WIND       PRES   REMARKS
GRAND FORKS    FAIR      26  19  74 S14       29.60S WCI  14
GRAND FORKS AF FAIR      24  19  79 S13       29.58F WCI  13
DEVILS LAKE    FAIR      31  22  69 S8        29.56R
FARGO          FAIR      29  24  82 S12       29.64S WCI  19
CAVALIER         N/A     27  23  86 S12       29.53S WCI  16
GRAFTON        FAIR      23  21  93 S18       29.57F WCI   9
GWINNER        FAIR      23  23 100 S7        29.63S WCI  15
ROLLA            N/A    N/A N/A N/A MISG        N/A
$$

CITY           SKY/WX    TMP DP  RH WIND       PRES   REMARKS
ABERDEEN       FOG       18  15  88 S3        29.64R VSB 1/4
MOBRIDGE       FAIR      16  11  80 S5        29.56F WCI   9
BUFFALO          N/A     31  19  61 CALM      29.48S
RAPID CITY     FAIR      34  23  64 W7        29.56S
GLASGOW        FAIR      26  21  81 SE7       29.48F WCI  18
SIDNEY         FAIR      23  19  85 S8        29.52F WCI  14
WOLF POINT     FAIR      16  12  84 CALM      29.52F
GLENDIVE       FAIR      19  16  88 S7        29.53F WCI  10
MILES CITY     FAIR      25  18  74 S9        29.54F WCI  15
BAKER          FAIR      20  14  77 CALM      29.55F
$$

CITY           SKY/WX    TMP DP  RH WIND       PRES   REMARKS
BILLINGS       FAIR      35  19  52 SW17      29.54F
GREAT FALLS    FAIR      41  25  53 S13       29.47F
REGINA         CLEAR     32  28  86 SW12      29.41S
ESTEVAN        CLEAR     25  23  93 SW10      29.48F WCI  15
$$





USA.gov is the U.S. government's official web portal to all federal, state and local government web resources and services.